星链-30583 (STARLINK-30583 )

导读

STARLINK-30583是美国太空探索技术公司(SpaceX)星链互联网卫星星座的成员,于2023年10月18日发射入轨,属于星链星座部署中批量发射组网卫星的一员。星链旨在为全球提供低延迟、高速卫星互联网服务,该卫星依托近地轨道运行,持续服务全球通信网络覆盖,尤其填补偏远地区互联网接入空白。

基本信息
目录编号:
58086
目录名称:
STARLINK-30583
国际标识:
2023-160M
轨道中心:
EARTH
卫星名称:
星链-30583
卫星全名:
星链-30583 (STARLINK-30583 )
卫星状态:
在轨 (已飞行974 天)
发射日期:
2023-10-18 UTC
国别 :
美国 (US)
星等 :
--
轨道信息
数据来源 国际轨道数据 AOE轨道数据
星历时间 2026-06-16T19:35:21+0800
1天前
查看轨道信息
2026-06-12T07:00:00+0800
6天前
查看轨道信息
半长轴 6861.114km 6861.134km
偏心率 0.0002433 0.000219
轨道倾角 43.005° 43.002°
近地点辐角 281.523° 283.251°
升交点赤经 243.478° 269.027°
平近点角 78.535° 5.720°
近地点 481.307km 481.494km
远地点 484.647km 484.5km
周期 94.265分钟 94.266分钟
每日圈数 15.276043 15.275977
详细信息
固有亮度:
5
最大亮度:
0.3
卫星平台:
Starlink v2.0 mini
覆盖范围:
全球
运营商:
太空探索技术公司
运营商所在国:
美国
制造商(研发单位):
太空探索技术公司
制造商所在国:
美国
使用方式:
暂无
卫星简介
星链(Starlink)计划是由太空探索技术公司(SpaceX)提出的一个巨型低轨卫星互联网星座项目,计划在2019年至2024年间在太空搭建由约1.2万颗卫星组成的“星链”网络,其中1584颗将部署在地球上空550千米处的近地轨道,并从2020年开始工作。该卫星仍在工作。
2D轨道图
3D轨道图
轨道高度分析图
轨道倾角分析图
轨道综合分析图
查看轨道综合分析图